Time,TemperatureF,DewpointF,PressureIn,WindDirection,WindDirectionDegrees,WindSpeedMPH,WindSpeedGustMPH,Humidity,HourlyPrecipIn,Conditions,Clouds,dailyrainin,SoftwareType,DateUTC
2013-06-13 00:02:00,79.0,67.0,29.90,North,-999,-999.0,-999.0,68,-99.99,,,-99.99,,2013-06-13 05:02:00,
2013-06-13 00:12:00,79.0,67.0,29.91,North,-999,-999.0,-999.0,68,-99.99,,,-99.99,,2013-06-13 05:12:00,
2013-06-13 00:24:00,79.0,67.0,29.91,North,-999,-999.0,-999.0,68,-99.99,,,-99.99,,2013-06-13 05:24:00,
2013-06-13 00:33:00,79.0,67.0,29.91,North,-999,-999.0,-999.0,68,-99.99,,,-99.99,,2013-06-13 05:33:00,
2013-06-13 00:43:00,79.0,68.0,29.92,North,-999,-999.0,-999.0,69,-99.99,,,-99.99,,2013-06-13 05:43:00,
2013-06-13 00:53:00,79.0,68.0,29.92,North,-999,-999.0,-999.0,68,-99.99,,,-99.99,,2013-06-13 05:53:00,
2013-06-13 01:02:00,79.0,68.0,29.92,North,-999,-999.0,-999.0,68,-99.99,,,-99.99,,2013-06-13 06:02:00,
2013-06-13 01:11:00,79.0,68.0,29.92,North,-999,-999.0,-999.0,69,-99.99,,,-99.99,,2013-06-13 06:11:00,
2013-06-13 01:22:00,79.0,68.0,29.92,North,-999,-999.0,-999.0,69,-99.99,,,-99.99,,2013-06-13 06:22:00,
2013-06-13 01:33:00,79.0,68.0,29.92,North,-999,-999.0,-999.0,69,-99.99,,,-99.99,,2013-06-13 06:33:00,
2013-06-13 01:44:00,79.0,68.0,29.92,North,-999,-999.0,-999.0,70,-99.99,,,-99.99,,2013-06-13 06:44:00,
2013-06-13 01:52:00,78.0,68.0,29.92,North,-999,-999.0,-999.0,72,-99.99,,,-99.99,,2013-06-13 06:52:00,
2013-06-13 02:01:00,78.0,68.0,29.92,North,-999,-999.0,-999.0,72,-99.99,,,-99.99,,2013-06-13 07:01:00,
2013-06-13 02:12:00,78.0,68.0,29.92,North,-999,-999.0,-999.0,72,-99.99,,,-99.99,,2013-06-13 07:12:00,
2013-06-13 02:22:00,78.0,68.0,29.92,North,-999,-999.0,-999.0,73,-99.99,,,-99.99,,2013-06-13 07:22:00,
2013-06-13 02:33:00,78.0,68.0,29.92,North,-999,-999.0,-999.0,73,-99.99,,,-99.99,,2013-06-13 07:33:00,
2013-06-13 02:42:00,78.0,68.0,29.92,North,-999,-999.0,-999.0,73,-99.99,,,-99.99,,2013-06-13 07:42:00,
2013-06-13 02:52:00,77.0,68.0,29.92,North,-999,-999.0,-999.0,73,-99.99,,,-99.99,,2013-06-13 07:52:00,
2013-06-13 03:01:00,77.0,68.0,29.92,North,-999,-999.0,-999.0,73,-99.99,,,-99.99,,2013-06-13 08:01:00,
2013-06-13 03:11:00,77.0,68.0,29.93,North,-999,-999.0,-999.0,74,-99.99,,,-99.99,,2013-06-13 08:11:00,
2013-06-13 03:22:00,77.0,68.0,29.94,North,-999,-999.0,-999.0,74,-99.99,,,-99.99,,2013-06-13 08:22:00,
2013-06-13 03:32:00,77.0,68.0,29.94,North,-999,-999.0,-999.0,74,-99.99,,,-99.99,,2013-06-13 08:32:00,
2013-06-13 03:43:00,77.0,69.0,29.94,North,-999,-999.0,-999.0,75,-99.99,,,-99.99,,2013-06-13 08:43:00,
2013-06-13 03:52:00,77.0,69.0,29.94,North,-999,-999.0,-999.0,76,-99.99,,,-99.99,,2013-06-13 08:52:00,
2013-06-13 04:02:00,77.0,69.0,29.94,North,-999,-999.0,-999.0,76,-99.99,,,-99.99,,2013-06-13 09:02:00,
2013-06-13 04:12:00,77.0,69.0,29.94,North,-999,-999.0,-999.0,77,-99.99,,,-99.99,,2013-06-13 09:12:00,
2013-06-13 04:22:00,77.0,69.0,29.94,North,-999,-999.0,-999.0,77,-99.99,,,-99.99,,2013-06-13 09:22:00,
2013-06-13 04:32:00,76.0,69.0,29.94,North,-999,-999.0,-999.0,77,-99.99,,,-99.99,,2013-06-13 09:32:00,
2013-06-13 04:42:00,76.0,68.0,29.95,North,-999,-999.0,-999.0,76,-99.99,,,-99.99,,2013-06-13 09:42:00,
2013-06-13 04:52:00,75.0,64.0,29.96,North,-999,-999.0,-999.0,68,-99.99,,,-99.99,,2013-06-13 09:52:00,
2013-06-13 05:01:00,75.0,64.0,29.96,North,-999,-999.0,-999.0,68,-99.99,,,-99.99,,2013-06-13 10:01:00,
2013-06-13 05:11:00,74.0,64.0,29.96,North,-999,-999.0,-999.0,70,-99.99,,,-99.99,,2013-06-13 10:11:00,
2013-06-13 05:22:00,74.0,64.0,29.96,North,-999,-999.0,-999.0,70,-99.99,,,-99.99,,2013-06-13 10:22:00,
2013-06-13 05:33:00,73.0,63.0,29.96,North,-999,-999.0,-999.0,71,-99.99,,,-99.99,,2013-06-13 10:33:00,
2013-06-13 05:43:00,72.0,63.0,29.97,North,-999,-999.0,-999.0,71,-99.99,,,-99.99,,2013-06-13 10:43:00,
2013-06-13 05:53:00,72.0,62.0,29.97,North,-999,-999.0,-999.0,71,-99.99,,,-99.99,,2013-06-13 10:53:00,
2013-06-13 06:02:00,72.0,62.0,29.97,North,-999,-999.0,-999.0,71,-99.99,,,-99.99,,2013-06-13 11:02:00,
2013-06-13 06:11:00,71.0,61.0,29.98,North,-999,-999.0,-999.0,71,-99.99,,,-99.99,,2013-06-13 11:11:00,
2013-06-13 06:23:00,71.0,61.0,29.98,North,-999,-999.0,-999.0,71,-99.99,,,-99.99,,2013-06-13 11:23:00,
2013-06-13 06:32:00,70.0,61.0,29.99,North,-999,-999.0,-999.0,73,-99.99,,,-99.99,,2013-06-13 11:32:00,
2013-06-13 06:42:00,70.0,60.0,30.00,North,-999,-999.0,-999.0,72,-99.99,,,-99.99,,2013-06-13 11:42:00,
2013-06-13 06:52:00,68.0,58.0,30.01,North,-999,-999.0,-999.0,69,-99.99,,,-99.99,,2013-06-13 11:52:00,
2013-06-13 07:01:00,68.0,58.0,30.01,North,-999,-999.0,-999.0,69,-99.99,,,-99.99,,2013-06-13 12:01:00,
2013-06-13 07:12:00,68.0,56.0,30.01,North,-999,-999.0,-999.0,67,-99.99,,,-99.99,,2013-06-13 12:12:00,
2013-06-13 07:22:00,68.0,56.0,30.01,North,-999,-999.0,-999.0,67,-99.99,,,-99.99,,2013-06-13 12:22:00,
2013-06-13 07:35:00,68.0,57.0,30.02,North,-999,-999.0,-999.0,67,-99.99,,,-99.99,,2013-06-13 12:35:00,
2013-06-13 07:42:00,68.0,57.0,30.02,North,-999,-999.0,-999.0,68,-99.99,,,-99.99,,2013-06-13 12:42:00,
2013-06-13 07:52:00,68.0,57.0,30.02,North,-999,-999.0,-999.0,69,-99.99,,,-99.99,,2013-06-13 12:52:00,
2013-06-13 08:01:00,68.0,57.0,30.02,North,-999,-999.0,-999.0,69,-99.99,,,-99.99,,2013-06-13 13:01:00,
2013-06-13 08:11:00,67.0,57.0,30.02,North,-999,-999.0,-999.0,69,-99.99,,,-99.99,,2013-06-13 13:11:00,
2013-06-13 08:22:00,67.0,57.0,30.02,North,-999,-999.0,-999.0,69,-99.99,,,-99.99,,2013-06-13 13:22:00,
2013-06-13 08:32:00,67.0,57.0,30.02,North,-999,-999.0,-999.0,72,-99.99,,,-99.99,,2013-06-13 13:32:00,
2013-06-13 08:43:00,67.0,58.0,30.03,North,-999,-999.0,-999.0,73,-99.99,,,-99.99,,2013-06-13 13:43:00,
2013-06-13 08:53:00,68.0,58.0,30.03,North,-999,-999.0,-999.0,70,-99.99,,,-99.99,,2013-06-13 13:53:00,
2013-06-13 09:02:00,68.0,58.0,30.03,North,-999,-999.0,-999.0,70,-99.99,,,-99.99,,2013-06-13 14:02:00,
2013-06-13 09:11:00,69.0,59.0,30.03,North,-999,-999.0,-999.0,70,-99.99,,,-99.99,,2013-06-13 14:11:00,
2013-06-13 09:22:00,69.0,59.0,30.03,North,-999,-999.0,-999.0,70,-99.99,,,-99.99,,2013-06-13 14:22:00,
2013-06-13 09:33:00,70.0,58.0,30.03,North,-999,-999.0,-999.0,66,-99.99,,,-99.99,,2013-06-13 14:33:00,
2013-06-13 09:43:00,71.0,59.0,30.03,North,-999,-999.0,-999.0,67,-99.99,,,-99.99,,2013-06-13 14:43:00,
2013-06-13 09:53:00,72.0,60.0,30.04,North,-999,-999.0,-999.0,66,-99.99,,,-99.99,,2013-06-13 14:53:00,
2013-06-13 10:02:00,72.0,60.0,30.04,North,-999,-999.0,-999.0,66,-99.99,,,-99.99,,2013-06-13 15:02:00,
2013-06-13 10:12:00,72.0,60.0,30.04,North,-999,-999.0,-999.0,65,-99.99,,,-99.99,,2013-06-13 15:12:00,
2013-06-13 10:22:00,72.0,60.0,30.04,North,-999,-999.0,-999.0,65,-99.99,,,-99.99,,2013-06-13 15:22:00,
2013-06-13 10:33:00,74.0,61.0,30.04,North,-999,-999.0,-999.0,65,-99.99,,,-99.99,,2013-06-13 15:33:00,
2013-06-13 10:43:00,74.0,63.0,30.04,North,-999,-999.0,-999.0,67,-99.99,,,-99.99,,2013-06-13 15:43:00,
2013-06-13 10:53:00,75.0,63.0,30.05,North,-999,-999.0,-999.0,66,-99.99,,,-99.99,,2013-06-13 15:53:00,
2013-06-13 11:02:00,75.0,63.0,30.05,North,-999,-999.0,-999.0,66,-99.99,,,-99.99,,2013-06-13 16:02:00,
2013-06-13 11:12:00,75.0,62.0,30.05,North,-999,-999.0,-999.0,63,-99.99,,,-99.99,,2013-06-13 16:12:00,
2013-06-13 11:22:00,75.0,62.0,30.05,North,-999,-999.0,-999.0,63,-99.99,,,-99.99,,2013-06-13 16:22:00,
2013-06-13 11:33:00,76.0,64.0,30.05,North,-999,-999.0,-999.0,65,-99.99,,,-99.99,,2013-06-13 16:33:00,
2013-06-13 11:43:00,77.0,62.0,30.05,North,-999,-999.0,-999.0,60,-99.99,,,-99.99,,2013-06-13 16:43:00,
2013-06-13 11:53:00,78.0,64.0,30.05,North,-999,-999.0,-999.0,62,-99.99,,,-99.99,,2013-06-13 16:53:00,
2013-06-13 12:02:00,78.0,64.0,30.05,North,-999,-999.0,-999.0,62,-99.99,,,-99.99,,2013-06-13 17:02:00,
2013-06-13 12:11:00,79.0,64.0,30.05,North,-999,-999.0,-999.0,62,-99.99,,,-99.99,,2013-06-13 17:11:00,
2013-06-13 12:24:00,79.0,64.0,30.05,North,-999,-999.0,-999.0,62,-99.99,,,-99.99,,2013-06-13 17:24:00,
2013-06-13 12:33:00,79.0,63.0,30.05,North,-999,-999.0,-999.0,59,-99.99,,,-99.99,,2013-06-13 17:33:00,
2013-06-13 12:43:00,79.0,64.0,30.05,North,-999,-999.0,-999.0,60,-99.99,,,-99.99,,2013-06-13 17:43:00,
2013-06-13 12:53:00,79.0,64.0,30.05,North,-999,-999.0,-999.0,59,-99.99,,,-99.99,,2013-06-13 17:53:00,
2013-06-13 13:02:00,79.0,64.0,30.05,North,-999,-999.0,-999.0,59,-99.99,,,-99.99,,2013-06-13 18:02:00,
2013-06-13 13:11:00,80.0,65.0,30.05,North,-999,-999.0,-999.0,61,-99.99,,,-99.99,,2013-06-13 18:11:00,
2013-06-13 13:22:00,80.0,65.0,30.05,North,-999,-999.0,-999.0,61,-99.99,,,-99.99,,2013-06-13 18:22:00,
2013-06-13 13:33:00,80.0,66.0,30.05,North,-999,-999.0,-999.0,62,-99.99,,,-99.99,,2013-06-13 18:33:00,
2013-06-13 13:43:00,81.0,65.0,30.05,North,-999,-999.0,-999.0,59,-99.99,,,-99.99,,2013-06-13 18:43:00,
2013-06-13 13:52:00,81.0,66.0,30.04,North,-999,-999.0,-999.0,60,-99.99,,,-99.99,,2013-06-13 18:52:00,
2013-06-13 14:01:00,81.0,66.0,30.04,North,-999,-999.0,-999.0,60,-99.99,,,-99.99,,2013-06-13 19:01:00,
2013-06-13 14:11:00,82.0,67.0,30.04,North,-999,-999.0,-999.0,61,-99.99,,,-99.99,,2013-06-13 19:11:00,
2013-06-13 14:22:00,82.0,67.0,30.04,North,-999,-999.0,-999.0,61,-99.99,,,-99.99,,2013-06-13 19:22:00,
2013-06-13 14:33:00,82.0,66.0,30.04,North,-999,-999.0,-999.0,58,-99.99,,,-99.99,,2013-06-13 19:33:00,
2013-06-13 14:43:00,82.0,66.0,30.04,North,-999,-999.0,-999.0,59,-99.99,,,-99.99,,2013-06-13 19:43:00,
2013-06-13 14:53:00,82.0,65.0,30.03,North,-999,-999.0,-999.0,57,-99.99,,,-99.99,,2013-06-13 19:53:00,
2013-06-13 15:02:00,82.0,65.0,30.03,North,-999,-999.0,-999.0,57,-99.99,,,-99.99,,2013-06-13 20:02:00,
2013-06-13 15:11:00,83.0,66.0,30.03,North,-999,-999.0,-999.0,58,-99.99,,,-99.99,,2013-06-13 20:11:00,
2013-06-13 15:22:00,83.0,66.0,30.03,North,-999,-999.0,-999.0,58,-99.99,,,-99.99,,2013-06-13 20:22:00,
2013-06-13 15:33:00,83.0,65.0,30.02,North,-999,-999.0,-999.0,55,-99.99,,,-99.99,,2013-06-13 20:33:00,
2013-06-13 15:44:00,83.0,67.0,30.02,North,-999,-999.0,-999.0,57,-99.99,,,-99.99,,2013-06-13 20:44:00,
2013-06-13 15:53:00,83.0,66.0,30.01,North,-999,-999.0,-999.0,56,-99.99,,,-99.99,,2013-06-13 20:53:00,
2013-06-13 16:02:00,83.0,66.0,30.01,North,-999,-999.0,-999.0,56,-99.99,,,-99.99,,2013-06-13 21:02:00,
2013-06-13 16:11:00,84.0,66.0,30.02,North,-999,-999.0,-999.0,55,-99.99,,,-99.99,,2013-06-13 21:11:00,
2013-06-13 16:22:00,84.0,66.0,30.02,North,-999,-999.0,-999.0,55,-99.99,,,-99.99,,2013-06-13 21:22:00,
2013-06-13 16:34:00,84.0,66.0,30.01,North,-999,-999.0,-999.0,54,-99.99,,,-99.99,,2013-06-13 21:34:00,
2013-06-13 16:43:00,84.0,66.0,30.01,North,-999,-999.0,-999.0,54,-99.99,,,-99.99,,2013-06-13 21:43:00,
2013-06-13 16:52:00,84.0,67.0,30.00,North,-999,-999.0,-999.0,56,-99.99,,,-99.99,,2013-06-13 21:52:00,
2013-06-13 17:02:00,84.0,67.0,30.00,North,-999,-999.0,-999.0,56,-99.99,,,-99.99,,2013-06-13 22:02:00,
2013-06-13 17:11:00,84.0,64.0,30.00,North,-999,-999.0,-999.0,51,-99.99,,,-99.99,,2013-06-13 22:11:00,
2013-06-13 17:22:00,84.0,64.0,30.00,North,-999,-999.0,-999.0,51,-99.99,,,-99.99,,2013-06-13 22:22:00,
2013-06-13 17:33:00,84.0,65.0,30.00,North,-999,-999.0,-999.0,53,-99.99,,,-99.99,,2013-06-13 22:33:00,
2013-06-13 17:43:00,84.0,65.0,30.00,North,-999,-999.0,-999.0,53,-99.99,,,-99.99,,2013-06-13 22:43:00,
2013-06-13 17:52:00,84.0,66.0,30.01,North,-999,-999.0,-999.0,55,-99.99,,,-99.99,,2013-06-13 22:52:00,
2013-06-13 18:02:00,84.0,66.0,30.01,North,-999,-999.0,-999.0,55,-99.99,,,-99.99,,2013-06-13 23:02:00,
2013-06-13 18:11:00,84.0,67.0,30.01,North,-999,-999.0,-999.0,56,-99.99,,,-99.99,,2013-06-13 23:11:00,
2013-06-13 18:22:00,84.0,67.0,30.01,North,-999,-999.0,-999.0,56,-99.99,,,-99.99,,2013-06-13 23:22:00,
2013-06-13 18:32:00,83.0,66.0,30.02,North,-999,-999.0,-999.0,56,-99.99,,,-99.99,,2013-06-13 23:32:00,
2013-06-13 18:43:00,83.0,66.0,30.02,North,-999,-999.0,-999.0,56,-99.99,,,-99.99,,2013-06-13 23:43:00,
2013-06-13 18:52:00,83.0,65.0,30.01,North,-999,-999.0,-999.0,55,-99.99,,,-99.99,,2013-06-13 23:52:00,
2013-06-13 19:01:00,83.0,65.0,30.01,North,-999,-999.0,-999.0,55,-99.99,,,-99.99,,2013-06-14 00:01:00,
2013-06-13 19:12:00,83.0,65.0,30.01,North,-999,-999.0,-999.0,55,-99.99,,,-99.99,,2013-06-14 00:12:00,
2013-06-13 19:22:00,83.0,65.0,30.01,North,-999,-999.0,-999.0,55,-99.99,,,-99.99,,2013-06-14 00:22:00,
2013-06-13 19:34:00,82.0,65.0,30.01,North,-999,-999.0,-999.0,58,-99.99,,,-99.99,,2013-06-14 00:34:00,
2013-06-13 19:43:00,81.0,64.0,30.01,North,-999,-999.0,-999.0,57,-99.99,,,-99.99,,2013-06-14 00:43:00,
2013-06-13 19:53:00,80.0,64.0,30.01,North,-999,-999.0,-999.0,59,-99.99,,,-99.99,,2013-06-14 00:53:00,
2013-06-13 20:01:00,80.0,64.0,30.01,North,-999,-999.0,-999.0,59,-99.99,,,-99.99,,2013-06-14 01:01:00,
2013-06-13 20:11:00,80.0,65.0,30.02,North,-999,-999.0,-999.0,61,-99.99,,,-99.99,,2013-06-14 01:11:00,
2013-06-13 20:22:00,80.0,65.0,30.02,North,-999,-999.0,-999.0,61,-99.99,,,-99.99,,2013-06-14 01:22:00,
2013-06-13 20:32:00,78.0,66.0,30.03,North,-999,-999.0,-999.0,67,-99.99,,,-99.99,,2013-06-14 01:32:00,
2013-06-13 20:43:00,77.0,64.0,30.03,North,-999,-999.0,-999.0,65,-99.99,,,-99.99,,2013-06-14 01:43:00,
2013-06-13 20:52:00,75.0,64.0,30.03,North,-999,-999.0,-999.0,69,-99.99,,,-99.99,,2013-06-14 01:52:00,
2013-06-13 21:02:00,75.0,64.0,30.03,North,-999,-999.0,-999.0,69,-99.99,,,-99.99,,2013-06-14 02:02:00,
2013-06-13 21:11:00,74.0,64.0,30.03,North,-999,-999.0,-999.0,70,-99.99,,,-99.99,,2013-06-14 02:11:00,
2013-06-13 21:22:00,74.0,64.0,30.02,North,-999,-999.0,-999.0,72,-99.99,,,-99.99,,2013-06-14 02:22:00,
2013-06-13 21:32:00,74.0,64.0,30.02,North,-999,-999.0,-999.0,72,-99.99,,,-99.99,,2013-06-14 02:32:00,
2013-06-13 21:43:00,73.0,64.0,30.02,North,-999,-999.0,-999.0,72,-99.99,,,-99.99,,2013-06-14 02:43:00,
2013-06-13 21:52:00,72.0,64.0,30.01,North,-999,-999.0,-999.0,74,-99.99,,,-99.99,,2013-06-14 02:52:00,
2013-06-13 22:02:00,72.0,64.0,30.01,North,-999,-999.0,-999.0,74,-99.99,,,-99.99,,2013-06-14 03:02:00,
2013-06-13 22:12:00,72.0,64.0,30.01,North,-999,-999.0,-999.0,76,-99.99,,,-99.99,,2013-06-14 03:12:00,
2013-06-13 22:22:00,71.0,63.0,30.01,North,-999,-999.0,-999.0,76,-99.99,,,-99.99,,2013-06-14 03:22:00,
2013-06-13 22:34:00,71.0,63.0,30.01,North,-999,-999.0,-999.0,76,-99.99,,,-99.99,,2013-06-14 03:34:00,
2013-06-13 22:43:00,71.0,64.0,30.01,North,-999,-999.0,-999.0,77,-99.99,,,-99.99,,2013-06-14 03:43:00,
2013-06-13 22:53:00,71.0,63.0,30.01,North,-999,-999.0,-999.0,78,-99.99,,,-99.99,,2013-06-14 03:53:00,
2013-06-13 23:01:00,71.0,63.0,30.01,North,-999,-999.0,-999.0,78,-99.99,,,-99.99,,2013-06-14 04:01:00,
2013-06-13 23:12:00,70.0,63.0,30.01,North,-999,-999.0,-999.0,78,-99.99,,,-99.99,,2013-06-14 04:12:00,
2013-06-13 23:22:00,70.0,63.0,30.00,North,-999,-999.0,-999.0,79,-99.99,,,-99.99,,2013-06-14 04:22:00,
2013-06-13 23:33:00,70.0,63.0,30.00,North,-999,-999.0,-999.0,79,-99.99,,,-99.99,,2013-06-14 04:33:00,
2013-06-13 23:43:00,69.0,62.0,30.00,North,-999,-999.0,-999.0,79,-99.99,,,-99.99,,2013-06-14 04:43:00,
2013-06-13 23:53:00,69.0,63.0,29.99,North,-999,-999.0,-999.0,80,-99.99,,,-99.99,,2013-06-14 04:53:00,